NKS1833 KDTW-KDFW

Flight info

Callsign NKS1833
Flight time 2h 36m
Altitude 36000
Route BARII3 SINKR PXV J131 LIT MEEOW FEWWW SEEVR4
Aircraft A320/M-SDE3FGHIRWY/LB1

Departure

Time 2026-05-05 13:35
Airport Detroit Metropolitan Wayne County Airport (KDTW)

Arrival

Time 2026-05-05 16:11
Airport Dallas Fort Worth International Airport (KDFW)
Time Latitude Longitude Altitude Speed Heading
2026-05-05 12:10 42.21404 -83.35323 646 ft 0 kts 297°
2026-05-05 13:21 42.21397 -83.35306 646 ft 4 kts 305°
2026-05-05 13:21 42.21396 -83.35303 646 ft 0 kts 307°
2026-05-05 13:24 42.21390 -83.35293 648 ft 4 kts 317°
2026-05-05 13:24 42.21370 -83.35277 647 ft 4 kts
2026-05-05 13:24 42.21359 -83.35280 647 ft 0 kts 25°
2026-05-05 13:27 42.21368 -83.35274 648 ft 3 kts 25°
2026-05-05 13:27 42.21392 -83.35258 646 ft 5 kts 25°
2026-05-05 13:27 42.21430 -83.35234 646 ft 7 kts 26°
2026-05-05 13:28 42.21463 -83.35219 646 ft 8 kts 13°
2026-05-05 13:28 42.21526 -83.35211 646 ft 10 kts 11°
2026-05-05 13:28 42.21546 -83.35191 647 ft 3 kts 54°
2026-05-05 13:28 42.21553 -83.35155 646 ft 5 kts 85°
2026-05-05 13:29 42.21558 -83.35096 646 ft 7 kts 71°
2026-05-05 13:29 42.21595 -83.35035 648 ft 10 kts 44°
2026-05-05 13:29 42.21648 -83.34967 646 ft 11 kts 44°
2026-05-05 13:29 42.21707 -83.34890 647 ft 12 kts 43°
2026-05-05 13:30 42.21773 -83.34806 647 ft 14 kts 43°
2026-05-05 13:30 42.21834 -83.34704 646 ft 14 kts 74°
2026-05-05 13:30 42.21837 -83.34571 647 ft 15 kts 84°
2026-05-05 13:30 42.21905 -83.34466 647 ft 16 kts 29°
2026-05-05 13:31 42.22004 -83.34392 646 ft 17 kts 28°
2026-05-05 13:31 42.22113 -83.34312 646 ft 19 kts 28°
2026-05-05 13:31 42.22233 -83.34223 646 ft 21 kts 28°
2026-05-05 13:31 42.22362 -83.34127 648 ft 22 kts 28°
2026-05-05 13:32 42.22503 -83.34025 646 ft 24 kts 28°
2026-05-05 13:32 42.22649 -83.33916 646 ft 24 kts 27°
2026-05-05 13:32 42.22751 -83.33810 646 ft 14 kts 83°
2026-05-05 13:32 42.22700 -83.33722 647 ft 13 kts 174°
2026-05-05 13:33 42.22663 -83.33736 647 ft 0 kts 208°
2026-05-05 13:34 42.22648 -83.33746 647 ft 19 kts 208°
2026-05-05 13:34 42.22352 -83.33967 646 ft 82 kts 209°
2026-05-05 13:34 42.21742 -83.34417 650 ft 129 kts 210°
2026-05-05 13:34 42.20836 -83.35070 754 ft 160 kts 204°
2026-05-05 13:35 42.19804 -83.35706 1366 ft 163 kts 205°
2026-05-05 13:35 42.18688 -83.36165 1946 ft 172 kts 200°
2026-05-05 13:35 42.17535 -83.36603 2527 ft 173 kts 200°
2026-05-05 13:35 42.16335 -83.36975 3015 ft 182 kts 198°
2026-05-05 13:36 42.15072 -83.37428 3406 ft 197 kts 204°
2026-05-05 13:36 42.13727 -83.38051 3662 ft 220 kts 205°
2026-05-05 13:36 42.12193 -83.38765 4077 ft 244 kts 204°
2026-05-05 13:36 42.10553 -83.39486 4899 ft 251 kts 203°
2026-05-05 13:37 42.08875 -83.40181 5825 ft 254 kts 202°
2026-05-05 13:37 42.07196 -83.40845 6728 ft 256 kts 202°
2026-05-05 13:37 42.05464 -83.41467 7614 ft 259 kts 200°
2026-05-05 13:37 42.03707 -83.42053 8495 ft 261 kts 200°
2026-05-05 13:38 42.01932 -83.42630 9363 ft 264 kts 200°
2026-05-05 13:38 42.00135 -83.43210 10134 ft 268 kts 200°
2026-05-05 13:38 41.98264 -83.43826 10480 ft 288 kts 200°
2026-05-05 13:38 41.96248 -83.44518 10758 ft 307 kts 202°
2026-05-05 13:39 41.94248 -83.45560 11340 ft 311 kts 208°
2026-05-05 13:39 41.92245 -83.46702 12048 ft 315 kts 208°
2026-05-05 13:39 41.90210 -83.47851 12790 ft 319 kts 207°
2026-05-05 13:39 41.88152 -83.49009 13506 ft 323 kts 207°
2026-05-05 13:40 41.86072 -83.50180 14145 ft 326 kts 208°
2026-05-05 13:40 41.83979 -83.51361 14777 ft 328 kts 208°
2026-05-05 13:40 41.81873 -83.52554 15406 ft 330 kts 208°
2026-05-05 13:40 41.79753 -83.53759 16019 ft 332 kts 208°
2026-05-05 13:41 41.77617 -83.54976 16630 ft 335 kts 208°
2026-05-05 13:41 41.75460 -83.56200 17255 ft 337 kts 208°
2026-05-05 13:41 41.73292 -83.57426 17884 ft 340 kts 208°
2026-05-05 13:41 41.71103 -83.58664 18425 ft 343 kts 209°
2026-05-05 13:42 41.68917 -83.59957 18953 ft 345 kts 211°
2026-05-05 13:42 41.66757 -83.61348 19460 ft 347 kts 213°
2026-05-05 13:42 41.64591 -83.62801 19990 ft 350 kts 213°
2026-05-05 13:42 41.62408 -83.64286 20500 ft 353 kts 214°
2026-05-05 13:43 41.60245 -83.65754 20991 ft 356 kts 214°
2026-05-05 13:43 41.58010 -83.67256 21417 ft 361 kts 213°
2026-05-05 13:43 41.55752 -83.68760 21864 ft 365 kts 213°
2026-05-05 13:43 41.53467 -83.70268 22340 ft 368 kts 213°
2026-05-05 13:44 41.51159 -83.71784 22804 ft 371 kts 214°
2026-05-05 13:44 41.48830 -83.73311 23271 ft 374 kts 214°
2026-05-05 13:44 41.46485 -83.74848 23663 ft 377 kts 214°
2026-05-05 13:44 41.44118 -83.76396 24082 ft 380 kts 214°
2026-05-05 13:45 41.41743 -83.77950 24504 ft 381 kts 214°
2026-05-05 13:45 41.39358 -83.79509 24885 ft 383 kts 214°
2026-05-05 13:45 41.36957 -83.81081 25233 ft 386 kts 214°
2026-05-05 13:45 41.34537 -83.82666 25621 ft 389 kts 214°
2026-05-05 13:46 41.32098 -83.84258 26027 ft 391 kts 214°
2026-05-05 13:46 41.29652 -83.85850 26443 ft 393 kts 214°
2026-05-05 13:46 41.27191 -83.87449 26855 ft 394 kts 214°
2026-05-05 13:46 41.24727 -83.89053 27253 ft 396 kts 214°
2026-05-05 13:47 41.22248 -83.90666 27649 ft 397 kts 214°
2026-05-05 13:47 41.19764 -83.92283 28077 ft 398 kts 215°
2026-05-05 13:47 41.17273 -83.93905 28496 ft 399 kts 215°
2026-05-05 13:47 41.14776 -83.95525 28942 ft 400 kts 215°
2026-05-05 13:48 41.12273 -83.97148 29355 ft 401 kts 215°
2026-05-05 13:48 41.09763 -83.98778 29771 ft 402 kts 215°
2026-05-05 13:48 41.07244 -84.00412 30116 ft 404 kts 215°
2026-05-05 13:48 41.04715 -84.02051 30456 ft 405 kts 216°
2026-05-05 13:49 41.02181 -84.03692 30797 ft 406 kts 216°
2026-05-05 13:49 40.99636 -84.05338 31142 ft 407 kts 216°
2026-05-05 13:49 40.97129 -84.06958 31436 ft 409 kts 216°
2026-05-05 13:49 40.94572 -84.08605 31784 ft 409 kts 216°
2026-05-05 13:50 40.91967 -84.10276 32246 ft 408 kts 216°
2026-05-05 13:50 40.89457 -84.11885 32720 ft 405 kts 217°
2026-05-05 13:50 40.86882 -84.13513 33213 ft 404 kts 216°
2026-05-05 13:50 40.84370 -84.15049 33685 ft 403 kts 216°
2026-05-05 13:51 40.81825 -84.16573 34118 ft 401 kts 216°
2026-05-05 13:51 40.79279 -84.18085 34474 ft 401 kts 216°
2026-05-05 13:51 40.76698 -84.19618 34791 ft 402 kts 216°
2026-05-05 13:51 40.74179 -84.21122 35017 ft 404 kts 216°
2026-05-05 13:52 40.71619 -84.22661 35282 ft 405 kts 217°
2026-05-05 13:52 40.69051 -84.24203 35566 ft 406 kts 217°
2026-05-05 13:52 40.66475 -84.25752 35789 ft 408 kts 217°
2026-05-05 13:52 40.63905 -84.27291 35835 ft 405 kts 217°
2026-05-05 13:53 40.58793 -84.30345 35841 ft 402 kts 217°
2026-05-05 13:53 40.53716 -84.33374 35841 ft 400 kts 217°
2026-05-05 13:54 40.48658 -84.36403 35841 ft 399 kts 217°
2026-05-05 13:54 40.46227 -84.38065 35827 ft 388 kts 225°
2026-05-05 13:54 40.44096 -84.40137 35831 ft 375 kts 233°
2026-05-05 13:55 40.40553 -84.44996 35842 ft 368 kts 237°
2026-05-05 13:55 40.37071 -84.49920 35850 ft 368 kts 237°
2026-05-05 13:56 40.33580 -84.54834 35824 ft 368 kts 237°
2026-05-05 13:56 40.30081 -84.59748 35836 ft 369 kts 237°
2026-05-05 13:57 40.26584 -84.64661 35845 ft 369 kts 238°
2026-05-05 13:57 40.23109 -84.69536 35855 ft 368 kts 237°
2026-05-05 13:58 40.19632 -84.74406 35866 ft 367 kts 237°
2026-05-05 13:58 40.16147 -84.79270 35862 ft 366 kts 237°
2026-05-05 13:59 40.10939 -84.86538 35830 ft 367 kts 238°
2026-05-05 14:00 40.06285 -84.93027 35838 ft 368 kts 238°
2026-05-05 14:00 40.02179 -84.98716 35850 ft 369 kts 238°
2026-05-05 14:01 39.98659 -85.03591 35862 ft 369 kts 238°
2026-05-05 14:01 39.95150 -85.08460 35872 ft 369 kts 237°
2026-05-05 14:02 39.91630 -85.13330 35855 ft 368 kts 237°
2026-05-05 14:02 39.88114 -85.18179 35859 ft 368 kts 237°
2026-05-05 14:03 39.84597 -85.23023 35859 ft 368 kts 237°
2026-05-05 14:03 39.81081 -85.27865 35862 ft 368 kts 237°
2026-05-05 14:04 39.77562 -85.32704 35883 ft 368 kts 237°
2026-05-05 14:04 39.74039 -85.37538 35882 ft 368 kts 237°
2026-05-05 14:05 39.70515 -85.42355 35848 ft 369 kts 237°
2026-05-05 14:05 39.66985 -85.47176 35869 ft 368 kts 237°
2026-05-05 14:06 39.63466 -85.51983 35879 ft 367 kts 237°
2026-05-05 14:06 39.59949 -85.56770 35883 ft 366 kts 237°
2026-05-05 14:07 39.56438 -85.61545 35883 ft 366 kts 237°
2026-05-05 14:07 39.52932 -85.66311 35884 ft 365 kts 237°
2026-05-05 14:08 39.49421 -85.71068 35847 ft 365 kts 237°
2026-05-05 14:08 39.45900 -85.75829 35846 ft 367 kts 237°
2026-05-05 14:09 39.42367 -85.80604 35848 ft 368 kts 237°
2026-05-05 14:09 39.38823 -85.85396 35851 ft 369 kts 237°
2026-05-05 14:10 39.35272 -85.90184 35864 ft 369 kts 237°
2026-05-05 14:10 39.31714 -85.94982 35869 ft 370 kts 237°
2026-05-05 14:11 39.28168 -85.99739 35861 ft 370 kts 237°
2026-05-05 14:11 39.24599 -86.04524 35871 ft 370 kts 238°
2026-05-05 14:12 39.21033 -86.09300 35876 ft 370 kts 238°
2026-05-05 14:12 39.17461 -86.14068 35887 ft 370 kts 238°
2026-05-05 14:13 39.13894 -86.18829 35869 ft 369 kts 237°
2026-05-05 14:13 39.10330 -86.23581 35879 ft 368 kts 237°
2026-05-05 14:14 39.06768 -86.28326 35879 ft 368 kts 237°
2026-05-05 14:14 39.03203 -86.33056 35852 ft 369 kts 238°
2026-05-05 14:15 38.99636 -86.37792 35863 ft 369 kts 238°
2026-05-05 14:15 38.96064 -86.42532 35870 ft 369 kts 238°
2026-05-05 14:16 38.92487 -86.47271 35874 ft 369 kts 238°
2026-05-05 14:16 38.89511 -86.51202 35880 ft 370 kts 238°
2026-05-05 14:17 38.85921 -86.55930 35882 ft 370 kts 238°
2026-05-05 14:17 38.82333 -86.60652 35843 ft 370 kts 238°
2026-05-05 14:18 38.78738 -86.65377 35849 ft 370 kts 238°
2026-05-05 14:18 38.75139 -86.70097 35862 ft 370 kts 238°
2026-05-05 14:19 38.71539 -86.74819 35872 ft 370 kts 238°
2026-05-05 14:19 38.67934 -86.79535 35880 ft 371 kts 238°
2026-05-05 14:20 38.64333 -86.84250 35888 ft 370 kts 238°
2026-05-05 14:20 38.60732 -86.88951 35876 ft 370 kts 238°
2026-05-05 14:21 38.57120 -86.93655 35875 ft 371 kts 238°
2026-05-05 14:21 38.53502 -86.98351 35866 ft 370 kts 238°
2026-05-05 14:22 38.49895 -87.03034 35879 ft 370 kts 238°
2026-05-05 14:22 38.46297 -87.07713 35886 ft 369 kts 238°
2026-05-05 14:23 38.42696 -87.12380 35889 ft 369 kts 238°
2026-05-05 14:23 38.39094 -87.17041 35889 ft 369 kts 238°
2026-05-05 14:24 38.35486 -87.21694 35877 ft 369 kts 237°
2026-05-05 14:24 38.31880 -87.26343 35881 ft 369 kts 238°
2026-05-05 14:25 38.28273 -87.30992 35881 ft 369 kts 237°
2026-05-05 14:25 38.24660 -87.35637 35871 ft 369 kts 237°
2026-05-05 14:26 38.21041 -87.40276 35876 ft 370 kts 237°
2026-05-05 14:26 38.17418 -87.44908 35882 ft 370 kts 237°
2026-05-05 14:27 38.13793 -87.49546 35871 ft 370 kts 237°
2026-05-05 14:27 38.10162 -87.54191 35875 ft 371 kts 237°
2026-05-05 14:28 38.06520 -87.58841 35881 ft 372 kts 237°
2026-05-05 14:28 38.02868 -87.63490 35885 ft 372 kts 237°
2026-05-05 14:29 37.99214 -87.68137 35886 ft 372 kts 237°
2026-05-05 14:29 37.95551 -87.72780 35876 ft 372 kts 236°
2026-05-05 14:30 37.91910 -87.77435 35877 ft 370 kts 238°
2026-05-05 14:30 37.88515 -87.82294 35880 ft 368 kts 240°
2026-05-05 14:31 37.85213 -87.87242 35887 ft 369 kts 240°
2026-05-05 14:31 37.81866 -87.92175 35890 ft 370 kts 240°
2026-05-05 14:32 37.78474 -87.97077 35892 ft 370 kts 239°
2026-05-05 14:32 37.75076 -88.01964 35898 ft 370 kts 239°
2026-05-05 14:33 37.71677 -88.06859 35900 ft 370 kts 239°
2026-05-05 14:33 37.68288 -88.11746 35861 ft 370 kts 239°
2026-05-05 14:34 37.64915 -88.16610 35864 ft 370 kts 239°
2026-05-05 14:34 37.61519 -88.21500 35875 ft 371 kts 239°
2026-05-05 14:35 37.58111 -88.26383 35882 ft 371 kts 239°
2026-05-05 14:35 37.54704 -88.31262 35891 ft 371 kts 239°
2026-05-05 14:36 37.51290 -88.36134 35898 ft 371 kts 239°
2026-05-05 14:36 37.47877 -88.41004 35897 ft 371 kts 239°
2026-05-05 14:37 37.44463 -88.45870 35885 ft 370 kts 239°
2026-05-05 14:37 37.41053 -88.50721 35843 ft 370 kts 239°
2026-05-05 14:38 37.37640 -88.55572 35852 ft 371 kts 239°
2026-05-05 14:38 37.34221 -88.60430 35861 ft 371 kts 239°
2026-05-05 14:39 37.30781 -88.65312 36110 ft 375 kts 239°
2026-05-05 14:39 37.29051 -88.67761 36436 ft 375 kts 239°
2026-05-05 14:39 37.27322 -88.70207 36793 ft 374 kts 239°
2026-05-05 14:40 37.25599 -88.72637 37164 ft 373 kts 240°
2026-05-05 14:40 37.23877 -88.75064 37518 ft 371 kts 240°
2026-05-05 14:40 37.22162 -88.77480 37822 ft 371 kts 241°
2026-05-05 14:40 37.20444 -88.79899 37892 ft 371 kts 241°
2026-05-05 14:41 37.17043 -88.84687 37894 ft 370 kts 241°
2026-05-05 14:41 37.13614 -88.89520 37895 ft 373 kts 241°
2026-05-05 14:42 37.10159 -88.94380 37893 ft 374 kts 240°
2026-05-05 14:42 37.06694 -88.99235 37891 ft 374 kts 240°
2026-05-05 14:43 37.03226 -89.04091 37891 ft 374 kts 240°
2026-05-05 14:43 36.99752 -89.08944 37890 ft 374 kts 240°
2026-05-05 14:44 36.96275 -89.13791 37882 ft 374 kts 242°
2026-05-05 14:44 36.92805 -89.18636 37887 ft 374 kts 242°
2026-05-05 14:45 36.89330 -89.23473 37893 ft 374 kts 241°
2026-05-05 14:45 36.85854 -89.28301 37867 ft 373 kts 241°
2026-05-05 14:46 36.82384 -89.33115 37879 ft 373 kts 241°
2026-05-05 14:46 36.78918 -89.37919 37888 ft 372 kts 241°
2026-05-05 14:47 36.75452 -89.42714 37888 ft 372 kts 241°
2026-05-05 14:47 36.71993 -89.47499 37873 ft 371 kts 241°
2026-05-05 14:48 36.68531 -89.52267 37885 ft 371 kts 241°
2026-05-05 14:48 36.65073 -89.57023 37889 ft 370 kts 241°
2026-05-05 14:49 36.61627 -89.61768 37886 ft 370 kts 242°
2026-05-05 14:49 36.58175 -89.66512 37889 ft 370 kts 242°
2026-05-05 14:50 36.54724 -89.71250 37881 ft 369 kts 241°
2026-05-05 14:50 36.51267 -89.75981 37880 ft 370 kts 241°
2026-05-05 14:51 36.47804 -89.80704 37860 ft 370 kts 241°
2026-05-05 14:51 36.44337 -89.85424 37868 ft 370 kts 241°
2026-05-05 14:52 36.40896 -89.90112 37873 ft 370 kts 241°
2026-05-05 14:52 36.37431 -89.94835 37876 ft 370 kts 241°
2026-05-05 14:53 36.33966 -89.99556 37839 ft 370 kts 241°
2026-05-05 14:53 36.30487 -90.04275 37826 ft 372 kts 241°
2026-05-05 14:54 36.26997 -90.09006 37840 ft 372 kts 241°
2026-05-05 14:54 36.23574 -90.13782 37851 ft 369 kts 243°
2026-05-05 14:55 36.20275 -90.18642 37863 ft 368 kts 244°
2026-05-05 14:55 36.16987 -90.23494 37872 ft 368 kts 243°
2026-05-05 14:56 36.13665 -90.28327 37879 ft 369 kts 243°
2026-05-05 14:56 36.10326 -90.33146 37887 ft 369 kts 243°
2026-05-05 14:57 36.06984 -90.37963 37891 ft 369 kts 243°
2026-05-05 14:57 36.03650 -90.42779 37858 ft 369 kts 243°
2026-05-05 14:58 36.00308 -90.47600 37877 ft 369 kts 243°
2026-05-05 14:58 35.96963 -90.52413 37883 ft 369 kts 243°
2026-05-05 14:59 35.93616 -90.57223 37881 ft 369 kts 243°
2026-05-05 14:59 35.90281 -90.62020 37882 ft 369 kts 243°
2026-05-05 15:00 35.87492 -90.66008 37886 ft 370 kts 243°
2026-05-05 15:00 35.83569 -90.71622 37891 ft 370 kts 243°
2026-05-05 15:01 35.80209 -90.76423 37876 ft 370 kts 243°
2026-05-05 15:01 35.76850 -90.81222 37864 ft 370 kts 242°
2026-05-05 15:02 35.73505 -90.85997 37847 ft 371 kts 243°
2026-05-05 15:02 35.70117 -90.90816 37853 ft 373 kts 243°
2026-05-05 15:03 35.66712 -90.95648 37862 ft 375 kts 242°
2026-05-05 15:03 35.63295 -91.00496 37872 ft 376 kts 242°
2026-05-05 15:04 35.60427 -91.04565 37876 ft 376 kts 242°
2026-05-05 15:04 35.56995 -91.09416 37885 ft 377 kts 242°
2026-05-05 15:05 35.51839 -91.16697 37875 ft 376 kts 242°
2026-05-05 15:06 35.48401 -91.21536 37864 ft 376 kts 242°
2026-05-05 15:06 35.44965 -91.26368 37880 ft 376 kts 242°
2026-05-05 15:07 35.41556 -91.31166 37890 ft 376 kts 242°
2026-05-05 15:07 35.38115 -91.35993 37893 ft 376 kts 242°
2026-05-05 15:08 35.34678 -91.40815 37892 ft 375 kts 242°
2026-05-05 15:08 35.31240 -91.45630 37889 ft 375 kts 242°
2026-05-05 15:09 35.27802 -91.50439 37883 ft 375 kts 242°
2026-05-05 15:09 35.24364 -91.55244 37842 ft 375 kts 242°
2026-05-05 15:10 35.20927 -91.60047 37842 ft 375 kts 242°
2026-05-05 15:10 35.17481 -91.64844 37852 ft 376 kts 242°
2026-05-05 15:11 35.14026 -91.69639 37876 ft 376 kts 242°
2026-05-05 15:11 35.10575 -91.74425 37881 ft 375 kts 242°
2026-05-05 15:12 35.07128 -91.79205 37882 ft 375 kts 242°
2026-05-05 15:12 35.03676 -91.83990 37879 ft 375 kts 242°
2026-05-05 15:13 35.00223 -91.88769 37868 ft 375 kts 242°
2026-05-05 15:13 34.96760 -91.93542 37824 ft 375 kts 241°
2026-05-05 15:14 34.93304 -91.98309 37847 ft 375 kts 241°
2026-05-05 15:14 34.89847 -92.03068 37867 ft 375 kts 241°
2026-05-05 15:15 34.86407 -92.07786 37866 ft 375 kts 241°
2026-05-05 15:15 34.82951 -92.12528 37870 ft 374 kts 241°
2026-05-05 15:15 34.81337 -92.14957 37875 ft 363 kts 248°
2026-05-05 15:16 34.80150 -92.17600 37882 ft 350 kts 257°
2026-05-05 15:16 34.78252 -92.23046 37883 ft 350 kts 256°
2026-05-05 15:17 34.76326 -92.28518 37876 ft 350 kts 256°
2026-05-05 15:17 34.74410 -92.33959 37887 ft 350 kts 256°
2026-05-05 15:18 34.72508 -92.39352 37882 ft 349 kts 256°
2026-05-05 15:18 34.70591 -92.44763 37844 ft 349 kts 256°
2026-05-05 15:19 34.68662 -92.50180 37856 ft 349 kts 256°
2026-05-05 15:19 34.66744 -92.55588 37865 ft 348 kts 256°
2026-05-05 15:20 34.64826 -92.60988 37867 ft 348 kts 256°
2026-05-05 15:20 34.62903 -92.66377 37867 ft 348 kts 256°
2026-05-05 15:21 34.60976 -92.71765 37876 ft 348 kts 256°
2026-05-05 15:21 34.59053 -92.77141 37872 ft 347 kts 256°
2026-05-05 15:22 34.57138 -92.82507 37871 ft 346 kts 256°
2026-05-05 15:22 34.55218 -92.87861 37874 ft 346 kts 256°
2026-05-05 15:23 34.53302 -92.93171 37872 ft 346 kts 256°
2026-05-05 15:23 34.51377 -92.98511 37873 ft 345 kts 256°
2026-05-05 15:24 34.49456 -93.03848 37869 ft 345 kts 256°
2026-05-05 15:24 34.47529 -93.09181 37870 ft 345 kts 255°
2026-05-05 15:25 34.45599 -93.14509 37870 ft 345 kts 255°
2026-05-05 15:25 34.43670 -93.19825 37839 ft 345 kts 255°
2026-05-05 15:26 34.41743 -93.25143 37803 ft 345 kts 255°
2026-05-05 15:26 34.39811 -93.30451 37812 ft 345 kts 255°
2026-05-05 15:27 34.37877 -93.35773 37815 ft 345 kts 255°
2026-05-05 15:27 34.35939 -93.41095 37820 ft 346 kts 255°
2026-05-05 15:28 34.33994 -93.46397 37823 ft 346 kts 255°
2026-05-05 15:28 34.32040 -93.51707 37818 ft 345 kts 255°
2026-05-05 15:29 34.30211 -93.57053 37821 ft 343 kts 257°
2026-05-05 15:29 34.28525 -93.62444 37823 ft 343 kts 257°
2026-05-05 15:30 34.26839 -93.67794 37824 ft 343 kts 257°
2026-05-05 15:30 34.25104 -93.73171 37826 ft 344 kts 257°
2026-05-05 15:31 34.23358 -93.78546 37825 ft 344 kts 257°
2026-05-05 15:31 34.21611 -93.83923 37807 ft 344 kts 257°
2026-05-05 15:32 34.19858 -93.89301 37815 ft 344 kts 257°
2026-05-05 15:32 34.18151 -93.94693 37819 ft 343 kts 257°
2026-05-05 15:33 34.16514 -94.00102 37812 ft 343 kts 258°
2026-05-05 15:33 34.14878 -94.05513 37796 ft 343 kts 257°
2026-05-05 15:34 34.13222 -94.10919 37791 ft 343 kts 257°
2026-05-05 15:34 34.11558 -94.16321 37800 ft 344 kts 257°
2026-05-05 15:35 34.09892 -94.21725 37797 ft 344 kts 257°
2026-05-05 15:35 34.08228 -94.27131 37806 ft 344 kts 257°
2026-05-05 15:36 34.06559 -94.32533 37808 ft 343 kts 257°
2026-05-05 15:36 34.04893 -94.37930 37812 ft 343 kts 257°
2026-05-05 15:37 34.03219 -94.43322 37820 ft 343 kts 257°
2026-05-05 15:37 34.01546 -94.48709 37821 ft 343 kts 257°
2026-05-05 15:38 33.99867 -94.54099 37813 ft 343 kts 257°
2026-05-05 15:38 33.98193 -94.59442 37808 ft 343 kts 256°
2026-05-05 15:39 33.96500 -94.64865 37802 ft 343 kts 257°
2026-05-05 15:39 33.94836 -94.70207 37795 ft 343 kts 256°
2026-05-05 15:40 33.93144 -94.75576 37793 ft 343 kts 256°
2026-05-05 15:40 33.91454 -94.80939 37796 ft 342 kts 256°
2026-05-05 15:41 33.89766 -94.86300 37791 ft 342 kts 256°
2026-05-05 15:41 33.88079 -94.91656 37786 ft 342 kts 256°
2026-05-05 15:42 33.86385 -94.97010 37786 ft 342 kts 256°
2026-05-05 15:42 33.84694 -95.02360 37754 ft 342 kts 256°
2026-05-05 15:43 33.83000 -95.07709 37762 ft 342 kts 256°
2026-05-05 15:43 33.81301 -95.13064 37770 ft 343 kts 256°
2026-05-05 15:44 33.79602 -95.18421 37770 ft 343 kts 256°
2026-05-05 15:44 33.77893 -95.23783 37777 ft 344 kts 256°
2026-05-05 15:45 33.76172 -95.29166 36957 ft 349 kts 256°
2026-05-05 15:45 33.75296 -95.31911 36159 ft 354 kts 255°
2026-05-05 15:45 33.74410 -95.34686 35382 ft 358 kts 255°
2026-05-05 15:45 33.73511 -95.37489 34636 ft 361 kts 255°
2026-05-05 15:46 33.72598 -95.40310 33893 ft 364 kts 254°
2026-05-05 15:46 33.71677 -95.43159 33103 ft 366 kts 254°
2026-05-05 15:46 33.70749 -95.46024 32206 ft 370 kts 254°
2026-05-05 15:46 33.69810 -95.48922 31269 ft 375 kts 254°
2026-05-05 15:47 33.68863 -95.51857 30435 ft 378 kts 254°
2026-05-05 15:47 33.68235 -95.53797 30167 ft 373 kts 254°
2026-05-05 15:47 33.66991 -95.57599 29683 ft 359 kts 254°
2026-05-05 15:47 33.66088 -95.60352 28675 ft 351 kts 254°
2026-05-05 15:48 33.65204 -95.63063 27620 ft 349 kts 253°
2026-05-05 15:48 33.64322 -95.65773 27059 ft 346 kts 253°
2026-05-05 15:48 33.63452 -95.68442 26561 ft 342 kts 253°
2026-05-05 15:48 33.62589 -95.71093 26068 ft 340 kts 253°
2026-05-05 15:49 33.61738 -95.73722 25587 ft 336 kts 253°
2026-05-05 15:49 33.60903 -95.76294 25106 ft 334 kts 253°
2026-05-05 15:49 33.60061 -95.78881 24623 ft 332 kts 253°
2026-05-05 15:49 33.59222 -95.81451 24145 ft 330 kts 253°
2026-05-05 15:50 33.58385 -95.84013 23671 ft 329 kts 252°
2026-05-05 15:50 33.57551 -95.86567 23168 ft 328 kts 252°
2026-05-05 15:50 33.56719 -95.89106 22652 ft 326 kts 252°
2026-05-05 15:50 33.55892 -95.91624 22180 ft 323 kts 252°
2026-05-05 15:51 33.55071 -95.94120 21710 ft 321 kts 252°
2026-05-05 15:51 33.54255 -95.96598 21246 ft 319 kts 252°
2026-05-05 15:51 33.53442 -95.99060 20724 ft 317 kts 253°
2026-05-05 15:51 33.52631 -96.01537 19988 ft 321 kts 253°
2026-05-05 15:52 33.52094 -96.03184 19678 ft 317 kts 253°
2026-05-05 15:52 33.51298 -96.05609 18849 ft 311 kts 252°
2026-05-05 15:52 33.50510 -96.08000 18261 ft 300 kts 252°
2026-05-05 15:52 33.49758 -96.10259 17858 ft 285 kts 252°
2026-05-05 15:53 33.49041 -96.12421 17457 ft 279 kts 252°
2026-05-05 15:53 33.48330 -96.14578 17079 ft 276 kts 252°
2026-05-05 15:53 33.47630 -96.16700 16887 ft 274 kts 252°
2026-05-05 15:53 33.46929 -96.18826 16557 ft 273 kts 252°
2026-05-05 15:54 33.46233 -96.20935 16178 ft 272 kts 252°
2026-05-05 15:54 33.45537 -96.23037 15802 ft 271 kts 252°
2026-05-05 15:54 33.44810 -96.25111 15426 ft 272 kts 247°
2026-05-05 15:54 33.43758 -96.27020 14997 ft 279 kts 236°
2026-05-05 15:55 33.42477 -96.28783 14547 ft 282 kts 235°
2026-05-05 15:55 33.41182 -96.30557 14091 ft 284 kts 235°
2026-05-05 15:55 33.39879 -96.32346 13627 ft 286 kts 235°
2026-05-05 15:55 33.38568 -96.34153 13135 ft 288 kts 235°
2026-05-05 15:56 33.37251 -96.35968 12664 ft 289 kts 234°
2026-05-05 15:56 33.35934 -96.37783 12221 ft 289 kts 234°
2026-05-05 15:56 33.34637 -96.39564 12078 ft 279 kts 234°
2026-05-05 15:56 33.33382 -96.41294 11833 ft 272 kts 237°
2026-05-05 15:57 33.32423 -96.43189 11586 ft 263 kts 250°
2026-05-05 15:57 33.31830 -96.45252 11345 ft 262 kts 254°
2026-05-05 15:57 33.31261 -96.47313 11108 ft 262 kts 253°
2026-05-05 15:57 33.30684 -96.49366 10937 ft 258 kts 253°
2026-05-05 15:58 33.30123 -96.51349 10707 ft 253 kts 252°
2026-05-05 15:58 33.29563 -96.53331 10427 ft 251 kts 252°
2026-05-05 15:58 33.29008 -96.55298 10147 ft 249 kts 253°
2026-05-05 15:58 33.28664 -96.57323 9886 ft 250 kts 265°
2026-05-05 15:59 33.28577 -96.59396 9585 ft 250 kts 266°
2026-05-05 15:59 33.28486 -96.61467 9267 ft 249 kts 265°
2026-05-05 15:59 33.28393 -96.63533 8967 ft 249 kts 266°
2026-05-05 15:59 33.28299 -96.65594 8670 ft 248 kts 266°
2026-05-05 16:00 33.28204 -96.67647 8372 ft 247 kts 266°
2026-05-05 16:00 33.28110 -96.69693 8080 ft 246 kts 266°
2026-05-05 16:00 33.28015 -96.71731 7791 ft 246 kts 266°
2026-05-05 16:00 33.27920 -96.73767 7494 ft 245 kts 266°
2026-05-05 16:01 33.27824 -96.75776 7317 ft 239 kts 266°
2026-05-05 16:01 33.27729 -96.77756 7002 ft 240 kts 266°
2026-05-05 16:01 33.27636 -96.79734 6700 ft 240 kts 266°
2026-05-05 16:01 33.27546 -96.81714 6460 ft 237 kts 266°
2026-05-05 16:02 33.27453 -96.83686 6174 ft 237 kts 265°
2026-05-05 16:02 33.27044 -96.85570 5891 ft 235 kts 247°
2026-05-05 16:02 33.26384 -96.87317 5727 ft 232 kts 248°
2026-05-05 16:02 33.25743 -96.89085 5560 ft 231 kts 249°
2026-05-05 16:03 33.25111 -96.90846 5408 ft 230 kts 249°
2026-05-05 16:03 33.24484 -96.92600 5241 ft 229 kts 248°
2026-05-05 16:03 33.23857 -96.94341 5109 ft 227 kts 248°
2026-05-05 16:03 33.23230 -96.96068 4962 ft 227 kts 249°
2026-05-05 16:04 33.22597 -96.97808 4814 ft 227 kts 249°
2026-05-05 16:04 33.21971 -96.99530 4666 ft 226 kts 249°
2026-05-05 16:04 33.21349 -97.01239 4508 ft 224 kts 249°
2026-05-05 16:04 33.20669 -97.02957 4370 ft 240 kts 240°
2026-05-05 16:05 33.19512 -97.04424 4210 ft 246 kts 219°
2026-05-05 16:05 33.17930 -97.05239 4100 ft 258 kts 197°
2026-05-05 16:05 33.16091 -97.05369 3992 ft 268 kts 186°
2026-05-05 16:05 33.14232 -97.05356 3992 ft 268 kts 186°
2026-05-05 16:06 33.12381 -97.05353 3798 ft 259 kts 187°
2026-05-05 16:06 33.10648 -97.05358 3676 ft 239 kts 188°
2026-05-05 16:06 33.09053 -97.05365 3542 ft 219 kts 189°
2026-05-05 16:06 33.07591 -97.05372 3428 ft 202 kts 189°
2026-05-05 16:07 33.06242 -97.05380 3346 ft 186 kts 190°
2026-05-05 16:07 33.05013 -97.05385 3140 ft 169 kts 191°
2026-05-05 16:07 33.03882 -97.05392 2951 ft 156 kts 192°
2026-05-05 16:07 33.02854 -97.05397 2772 ft 141 kts 192°
2026-05-05 16:08 33.01894 -97.05405 2585 ft 135 kts 191°
2026-05-05 16:08 33.00964 -97.05412 2418 ft 133 kts 188°
2026-05-05 16:08 33.00051 -97.05418 2251 ft 130 kts 187°
2026-05-05 16:08 32.99144 -97.05424 2088 ft 130 kts 186°
2026-05-05 16:09 32.98244 -97.05429 1919 ft 128 kts 186°
2026-05-05 16:09 32.97379 -97.05434 1753 ft 125 kts 186°
2026-05-05 16:09 32.96510 -97.05438 1599 ft 126 kts 186°
2026-05-05 16:09 32.95629 -97.05443 1434 ft 125 kts 186°
2026-05-05 16:10 32.94741 -97.05449 1274 ft 130 kts 183°
2026-05-05 16:10 32.93845 -97.05452 1115 ft 127 kts 184°
2026-05-05 16:10 32.92964 -97.05444 939 ft 128 kts 178°
2026-05-05 16:10 32.92080 -97.05448 745 ft 128 kts 182°
2026-05-05 16:11 32.91200 -97.05459 635 ft 124 kts 182°
2026-05-05 16:11 32.89885 -97.05471 611 ft 22 kts 181°
2026-05-05 16:12 32.89710 -97.05451 611 ft 19 kts 166°
2026-05-05 16:12 32.89495 -97.05339 621 ft 0 kts 151°
2026-05-05 16:13 32.89403 -97.05161 597 ft 14 kts 89°
2026-05-05 16:13 32.89402 -97.05042 599 ft 15 kts 91°
2026-05-05 16:13 32.89399 -97.04916 598 ft 10 kts 105°
2026-05-05 16:14 32.89202 -97.04889 592 ft 19 kts 180°
2026-05-05 16:14 32.88893 -97.04890 589 ft 25 kts 180°
2026-05-05 16:15 32.88609 -97.04829 588 ft 15 kts 96°
2026-05-05 16:15 32.88606 -97.04548 591 ft 19 kts 89°
2026-05-05 16:16 32.88605 -97.04232 601 ft 19 kts 91°
2026-05-05 16:16 32.88604 -97.03885 601 ft 24 kts 90°
2026-05-05 16:17 32.88619 -97.03509 584 ft 7 kts 28°
2026-05-05 16:17 32.88662 -97.03543 584 ft 9 kts 316°
2026-05-05 16:18 32.88786 -97.03586 584 ft 7 kts 321°
2026-05-05 16:18 32.88817 -97.03616 584 ft 2 kts 322°
2026-05-05 16:18 32.88820 -97.03619 584 ft 0 kts 322°